Temperature
27 26 26 25 29 29 29 30 30 30 30 29 29 28 27 26 25 23 22 21 20 20 19 19 19 19 19 19 18 18 19 19 18 18 18 18 18 18 18 18 18 18 18 18 18 18 18 18 18
27 26 26 28 29 29 29 30 30 30 30 29 28 28 27 25 24 23 22 21 20 20 19 19 19 19 19 19 19 19 19 18 18 18 18 18 18 18 18 18 18 18 18 18 18 18 18 18 18
27 27 29 31 30 30 30 31 31 31 30 29 28 27 26 25 24 23 22 21 20 19 20 20 19 19 19 19 19 19 18 18 18 18 18 18 18 18 18 18 18 18 18 18 18 18 18 18 18
27 29 31 32 31 31 31 31 31 31 30 29 28 26 25 24 23 23 22 21 20 19 20 20 19 19 19 19 19 19 18 18 18 18 18 18 18 18 18 18 18 18 18 18 18 18 18 18 18
29 31 32 32 32 32 33 32 32 31 30 29 27 26 24 24 23 23 22 22 21 20 20 20 20 19 19 19 19 19 19 18 18 18 18 18 18 18 18 18 18 18 18 18 18 18 18 18 18
32 33 32 31 32 33 33 32 32 31 30 29 27 26 24 24 23 23 23 22 22 20 20 20 20 19 19 19 19 19 19 19 18 18 18 18 18 18 18 18 18 18 18 18 18 18 18 18 18
33 33 33 32 32 32 33 32 32 31 31 30 28 26 25 24 23 23 23 23 22 21 20 20 20 20 19 19 19 19 19 19 19 19 18 18 18 18 18 18 18 18 18 18 18 18 18 18 18
34 34 33 33 32 32 33 32 31 31 30 29 29 27 25 24 24 23 23 23 22 21 20 20 19 19 19 19 19 19 19 19 19 19 18 18 18 18 18 18 18 18 18 18 18 18 18 18 18
34 33 33 33 33 33 33 32 31 30 30 29 29 27 25 24 24 23 23 23 22 22 21 20 20 19 19 19 19 19 19 19 19 19 18 18 18 18 18 18 18 18 18 18 18 18 18 18 18
34 33 33 34 34 34 33 32 31 30 29 28 27 26 25 24 24 24 23 23 22 22 21 21 20 20 20 19 19 19 19 19 19 18 18 18 18 18 18 18 18 18 18 18 18 18 18 18 18
34 33 35 35 34 34 33 33 32 31 30 29 27 26 25 25 24 24 23 23 22 22 21 21 20 20 20 20 19 19 19 19 18 18 18 18 18 18 18 18 18 18 18 18 18 18 18 18 18
35 35 35 35 34 34 34 33 33 32 30 28 27 26 25 25 25 24 23 22 22 22 21 21 20 20 20 20 20 19 19 19 19 19 19 18 18 18 18 18 18 18 18 18 18 18 18 18 18
35 35 35 34 34 34 34 33 32 31 30 28 27 26 26 25 25 24 23 23 22 22 21 21 20 20 20 20 20 20 19 19 19 19 19 19 19 19 19 18 18 18 18 18 18 18 18 18 18
35 35 35 34 34 33 32 32 32 31 29 28 27 27 26 26 25 24 23 23 22 22 21 20 20 20 20 20 20 19 19 19 19 19 19 19 19 18 18 19 19 19 18 18 18 18 18 18 18
35 35 34 34 34 33 32 31 32 31 29 28 28 27 27 26 26 25 24 23 22 21 21 20 20 20 20 20 20 19 19 19 19 19 19 19 19 19 19 18 19 19 19 19 19 18 18 18 18
35 33 32 33 34 34 32 30 32 31 30 29 28 28 27 26 26 25 24 23 22 22 21 21 21 20 20 20 20 19 19 19 19 19 19 19 19 19 19 19 19 19 19 19 18 18 18 18 18
33 32 31 33 34 34 33 31 32 31 30 29 29 28 27 26 26 25 24 23 22 22 21 21 21 20 20 20 20 20 19 19 19 19 19 19 19 19 19 19 19 19 18 18 18 18 18 18 19
32 32 32 32 34 34 33 32 32 32 31 30 29 28 27 26 26 25 24 23 22 22 21 21 21 20 20 20 20 19 19 19 19 19 19 19 19 19 19 19 19 18 18 18 18 18 18 18 18
33 33 32 33 34 34 33 32 32 33 32 31 30 29 27 26 26 25 24 24 23 22 21 21 21 20 20 20 20 19 19 19 19 19 19 19 19 19 19 19 18 18 18 18 18 18 18 18 18
33 33 33 33 35 34 33 32 32 32 32 32 30 29 28 27 26 25 24 24 23 22 21 21 21 21 20 20 20 19 19 19 19 19 19 19 19 19 18 18 18 18 18 18 18 18 18 18 18
33 33 33 33 34 34 33 31 31 31 31 31 31 30 29 28 26 25 25 24 23 22 22 21 21 21 20 20 20 19 19 19 19 19 19 19 19 19 18 18 18 18 18 18 18 18 18 18 18
33 34 34 33 33 33 33 30 30 30 30 31 31 31 30 29 27 26 25 24 24 23 22 22 21 21 21 20 20 19 19 19 19 19 19 19 19 18 18 18 18 18 18 18 18 18 18 18 18
34 34 34 33 32 32 33 31 30 30 30 31 31 31 30 29 28 27 26 25 24 23 22 22 21 21 21 20 20 20 20 19 19 19 19 19 19 18 18 18 18 18 18 18 18 18 18 18 18
34 34 33 33 32 31 32 31 29 30 30 32 32 31 30 30 29 27 26 25 24 24 23 22 22 21 21 21 20 20 20 19 19 19 19 19 18 18 18 18 18 18 18 18 18 18 18 18 18
34 32 31 30 30 30 32 32 30 32 33 33 32 31 31 30 29 28 27 25 24 24 23 22 22 21 21 21 20 20 20 20 19 19 19 18 18 18 18 18 18 18 18 18 18 17 17 17 17
33 32 30 29 29 30 31 31 32 33 34 33 32 31 31 30 29 28 26 25 24 24 23 22 22 21 21 21 20 20 20 19 19 19 18 18 18 18 18 18 18 18 18 17 17 17 17 17 17
32 33 33 32 31 30 30 31 32 33 33 33 32 32 31 30 29 28 26 25 24 23 23 22 22 21 21 21 20 20 20 19 19 19 18 18 18 18 18 18 18 18 17 17 17 17 17 17 17
33 33 33 32 30 30 31 31 31 32 32 32 32 32 31 30 29 28 27 25 24 24 23 22 22 21 21 20 20 20 20 19 19 19 18 18 18 18 18 18 17 17 17 17 17 17 16 16 16
32 32 32 32 32 30 30 30 32 31 32 32 32 31 31 30 29 28 27 26 24 23 23 22 21 21 21 21 20 20 20 19 19 19 18 18 18 18 18 18 17 17 17 16 16 16 16 16 16
33 32 32 31 30 31 31 30 33 32 32 32 31 30 30 29 28 27 26 25 24 23 23 22 21 21 21 20 20 20 19 19 19 18 18 18 18 18 17 17 17 17 17 16 16 16 16 16 16
Wind_Speed
8 11 9 6 1 7 16 17 16 17 17 17 17 17 19 18 14 13 13 17 18 17 17 15 14 15 15 15 15 16 16 16 16 17 16 16 16 17 16 16 16 17 17 17 17 17 17 17 16
9 11 7 3 4 11 15 15 16 16 15 16 19 21 22 21 18 16 15 16 18 17 16 15 14 15 14 14 15 15 15 15 15 16 15 15 15 16 15 15 16 16 16 16 16 16 16 15 15
10 13 5 2 10 13 16 14 14 14 14 17 19 19 16 16 17 14 15 17 18 17 17 16 14 14 14 14 14 14 14 14 14 14 14 14 14 14 15 15 15 15 15 15 16 15 15 13 12
8 7 2 7 15 17 15 13 14 13 14 15 16 14 16 16 16 16 17 18 18 17 18 16 14 14 13 13 13 13 13 13 13 13 14 14 14 13 14 14 14 14 14 14 14 14 13 11 10
9 3 5 12 17 15 14 14 14 14 15 19 19 18 17 17 17 16 15 16 17 18 17 16 14 14 13 13 13 12 12 12 12 12 13 13 13 12 13 13 13 13 13 13 13 12 11 9 7
6 1 6 12 16 14 13 14 15 15 16 18 19 18 14 15 14 14 13 14 17 18 17 16 15 14 13 12 12 11 11 11 11 11 12 12 11 11 11 11 11 11 11 11 11 10 9 7 5
5 1 8 14 15 14 13 13 14 13 13 15 18 17 13 15 13 13 12 13 15 16 16 15 15 14 13 12 11 10 10 10 9 9 10 10 10 10 10 9 10 10 10 10 9 9 8 6 3
3 2 9 13 14 14 13 13 13 14 12 11 13 13 15 15 14 14 12 12 13 13 14 13 14 14 13 12 10 10 9 9 8 8 8 8 9 9 9 9 8 9 9 8 8 7 6 5 3
3 4 9 12 13 14 13 14 13 13 11 11 14 19 19 18 15 13 12 11 10 10 10 10 12 11 12 13 12 11 9 8 8 7 7 8 7 8 8 8 9 8 8 8 7 7 6 5 5
4 7 11 12 12 13 13 13 12 12 13 15 18 20 19 17 15 13 12 11 10 9 8 8 9 7 7 9 10 9 9 9 6 6 7 5 4 5 8 11 10 8 8 8 8 8 7 8 7
7 8 10 12 11 11 11 11 10 13 13 16 19 19 17 16 13 12 12 11 9 7 8 9 8 4 5 5 6 5 5 7 6 6 5 4 3 5 7 9 9 8 8 7 9 9 9 9 6
6 8 8 9 9 9 10 11 12 13 15 17 19 18 16 15 13 12 12 11 9 7 7 9 8 5 5 5 3 3 3 3 3 4 3 3 2 1 2 3 5 6 6 5 5 5 5 5 4
5 7 8 9 8 8 10 12 14 15 17 19 19 17 16 14 13 12 12 12 10 7 7 8 8 6 4 3 1 2 2 2 4 4 2 1 1 1 1 1 1 3 3 3 2 2 2 2 2
3 5 7 8 8 9 8 8 13 15 17 18 17 15 14 13 13 13 12 11 10 8 8 8 8 6 4 2 1 1 1 1 3 3 3 2 2 2 1 1 1 1 2 2 2 2 2 2 2
2 3 5 6 6 9 9 7 10 15 17 16 15 14 13 12 12 12 12 11 10 8 8 8 8 7 5 3 2 1 1 2 1 3 3 1 2 1 1 1 2 2 3 2 2 2 2 3 4
5 4 4 5 5 9 7 6 11 14 15 15 14 13 12 11 12 12 12 10 10 9 8 6 6 8 6 3 1 1 0 1 1 1 2 2 1 1 2 2 2 3 3 2 2 2 3 2 2
7 7 6 4 6 7 6 6 13 13 15 14 13 13 13 12 12 11 12 11 10 9 8 6 4 7 5 5 3 2 1 0 1 1 1 1 1 2 2 2 1 3 2 2 3 2 2 2 2
5 5 7 6 6 7 8 7 11 13 14 14 14 14 13 13 12 12 11 12 11 10 8 7 5 5 5 4 3 2 2 2 2 1 1 1 1 2 2 2 1 2 1 1 2 1 2 2 3
7 5 3 3 4 5 7 8 9 11 12 14 15 15 14 14 13 12 12 12 11 9 9 8 6 5 4 3 3 3 2 2 2 1 2 1 2 2 2 2 1 1 1 2 3 2 3 4 3
9 8 4 3 4 4 5 7 6 7 9 12 14 15 15 15 14 13 11 11 11 10 9 8 7 6 5 3 3 2 2 2 2 1 1 1 2 3 3 1 2 2 2 3 4 3 3 3 2
11 9 5 4 5 7 7 6 6 5 7 9 12 14 15 16 16 14 13 11 12 11 10 9 8 7 6 4 3 2 1 1 0 1 1 2 2 2 3 1 2 3 2 3 4 4 4 3 3
11 7 6 6 8 6 6 4 6 9 9 9 11 13 15 16 17 16 14 13 12 12 11 9 8 7 6 5 4 4 3 2 2 1 1 1 2 2 3 3 2 2 3 3 4 3 3 3 3
9 5 6 9 10 10 8 4 4 8 10 10 11 12 13 15 16 16 15 13 12 11 11 10 8 7 6 5 4 3 3 2 1 1 2 2 2 2 2 2 1 2 2 3 3 2 2 3 3
8 6 8 10 11 11 10 5 5 9 10 10 11 11 12 13 14 14 14 13 11 10 10 10 9 7 6 5 4 4 3 2 1 0 0 1 1 1 1 1 1 1 2 3 3 2 2 2 2
11 10 8 8 8 8 6 5 5 9 10 9 10 11 11 12 12 13 13 12 11 10 10 10 9 7 6 6 4 3 3 2 1 1 1 1 1 0 0 1 1 1 2 2 2 2 2 2 2
14 15 11 8 7 5 5 5 5 7 8 9 8 9 12 12 12 12 12 12 11 10 10 9 9 8 7 6 4 3 2 2 1 1 1 1 1 2 2 1 1 1 2 2 2 2 2 1 2
14 15 16 13 12 7 6 5 7 8 10 10 9 9 12 12 12 13 13 13 12 11 10 10 9 8 7 6 5 3 3 1 0 0 0 1 2 1 2 2 2 2 3 3 3 2 2 2 2
16 13 10 11 9 9 8 8 7 11 11 10 9 10 11 12 13 13 13 13 12 11 10 9 9 7 6 5 4 4 3 2 1 1 2 2 2 3 3 3 3 3 3 3 2 2 2 2 2
16 15 11 9 10 9 6 2 5 6 8 11 11 9 10 10 12 13 12 13 13 12 11 10 9 8 6 5 4 3 4 3 2 2 2 2 2 3 3 3 3 3 3 3 2 3 3 4 4
17 17 15 10 9 9 8 2 4 7 8 9 10 10 8 10 10 13 13 12 11 11 11 10 9 8 7 6 5 4 4 3 3 3 2 2 2 2 2 3 3 3 4 3 4 4 5 5 5
Wind_Direction
237 233 229 252 239 76 70 69 72 71 66 61 60 67 64 61 75 91 107 105 105 105 103 94 87 86 85 84 83 84 85 84 84 83 83 83 85 85 85 86 86 86 90 91 93 95 97 99 99
254 245 235 247 62 78 75 74 73 74 79 79 74 75 75 75 86 99 105 105 104 102 100 95 91 88 86 85 86 85 86 86 87 87 86 85 85 86 87 87 87 89 92 93 95 97 99 100 101
255 252 255 101 73 78 82 81 84 85 87 85 78 69 72 87 92 104 113 110 103 101 101 99 94 90 89 87 86 86 86 88 88 89 89 89 88 88 88 88 89 91 93 95 97 98 100 102 103
262 245 162 82 77 79 86 92 94 91 89 89 88 80 76 87 101 112 118 114 113 111 106 103 99 94 92 90 88 87 87 87 88 89 90 90 89 89 90 91 92 93 94 96 99 101 103 105 106
250 262 93 84 83 83 86 91 92 89 84 84 88 94 93 97 108 116 118 119 117 111 111 110 106 101 98 95 92 90 88 88 89 90 92 91 91 91 92 94 95 97 97 98 103 105 105 108 110
267 228 90 88 88 87 87 91 91 91 97 103 104 104 104 114 117 120 121 120 117 116 115 118 115 111 106 101 98 95 94 93 93 95 97 96 95 94 94 95 99 101 102 104 106 109 111 114 114
278 1 100 97 94 86 84 89 94 97 97 103 111 113 123 127 125 120 114 113 115 118 125 131 128 123 116 111 108 106 104 104 104 105 107 107 106 104 103 102 105 107 111 112 115 117 119 122 132
298 23 87 95 98 94 89 87 93 96 91 105 121 120 131 132 132 125 122 116 116 120 126 132 132 136 134 128 127 124 123 124 123 123 127 129 125 122 124 118 118 120 125 127 129 132 136 147 181
353 59 77 89 99 103 102 97 96 99 96 81 88 115 129 135 133 132 126 114 109 109 118 127 127 141 144 138 141 147 146 152 155 155 167 169 162 151 145 132 136 138 143 148 152 155 162 181 209
51 72 80 86 97 105 107 111 119 115 106 99 101 115 129 137 138 137 132 126 119 119 120 113 115 125 128 129 147 161 155 163 182 160 172 182 157 142 138 147 152 157 165 172 179 181 189 212 215
74 79 85 90 98 108 110 115 120 120 121 122 126 133 140 142 144 140 132 127 126 128 119 115 113 123 116 120 143 135 137 154 167 151 160 151 151 153 144 157 162 179 188 198 189 197 209 220 225
93 90 90 93 95 101 104 100 89 90 107 123 133 140 144 149 149 142 134 132 135 132 124 120 115 86 58 66 95 132 136 148 144 140 161 144 158 144 111 128 161 181 191 199 187 200 206 219 231
109 104 103 99 95 86 90 93 94 98 110 123 134 143 152 154 148 139 133 133 134 136 125 109 107 102 83 53 349 89 100 111 118 123 121 117 122 93 81 98 182 210 188 179 182 189 217 230 229
110 121 117 113 114 108 95 99 107 113 121 129 140 150 157 152 148 138 135 135 143 147 134 127 128 126 126 128 1 14 78 102 100 106 100 62 67 71 39 209 264 260 224 197 206 213 188 219 228
164 162 133 133 136 119 114 112 118 127 132 140 147 154 153 152 145 141 143 147 149 147 136 141 149 146 155 166 207 193 191 140 124 118 128 121 104 138 252 265 237 265 255 210 221 259 227 225 222
213 207 188 171 158 141 133 133 137 142 143 147 153 154 154 150 151 151 149 151 149 148 143 164 165 147 156 172 218 270 317 87 97 118 136 129 140 205 255 263 249 266 259 226 209 241 250 253 252
219 199 203 181 169 153 138 142 149 158 151 154 159 160 160 160 160 159 155 155 150 145 149 165 155 144 164 174 193 220 202 51 256 195 124 112 249 252 250 267 268 263 260 258 257 209 255 258 265
244 208 189 193 177 156 140 157 157 163 162 163 165 165 166 167 169 163 160 157 154 150 154 164 161 154 168 174 195 225 216 202 217 191 129 152 259 281 294 274 265 286 294 294 288 295 277 266 260
263 257 204 188 171 178 154 163 175 170 173 168 169 169 171 169 170 165 167 165 160 158 161 161 172 168 176 190 203 213 210 218 210 181 147 151 286 296 287 309 328 290 285 289 297 283 271 256 248
255 256 229 223 195 207 171 174 183 179 187 178 173 171 172 170 169 168 171 169 164 165 165 166 177 175 188 199 207 211 220 224 194 143 132 183 247 275 263 235 265 268 262 270 275 268 261 261 241
241 246 231 248 248 232 211 197 165 197 205 184 177 174 175 174 173 174 178 176 174 173 175 180 178 176 187 188 201 220 192 256 218 167 178 214 233 251 283 270 274 278 259 254 255 258 245 254 271
240 236 242 251 261 259 232 214 175 188 209 194 188 179 178 177 175 176 179 179 181 177 176 175 171 173 179 190 204 206 201 210 206 189 178 202 223 255 259 265 262 281 288 280 267 267 266 258 263
245 235 244 253 262 268 261 240 194 182 206 198 191 182 177 178 175 175 177 177 181 178 173 169 164 169 175 186 197 206 222 226 214 188 172 207 224 248 268 264 282 281 286 300 293 306 286 265 258
238 233 247 253 256 252 253 242 187 187 195 185 179 178 176 175 171 171 173 169 173 173 170 164 161 167 172 183 193 200 216 241 288 21 281 228 236 241 261 295 303 300 298 300 298 300 293 285 280
229 231 236 239 239 248 248 244 181 178 174 165 160 170 175 171 169 165 162 159 163 167 162 158 157 165 171 176 185 192 203 204 231 256 261 280 326 351 352 332 351 322 307 309 313 310 303 300 294
222 233 235 246 246 246 234 233 174 161 138 140 147 161 164 164 164 158 154 154 158 159 155 154 157 164 169 171 173 180 180 191 213 248 298 2 2 18 32 17 349 346 339 333 329 322 307 313 306
223 230 240 253 261 257 226 207 182 167 148 146 154 159 155 157 156 156 156 157 159 158 155 154 152 155 159 163 159 160 143 156 216 117 325 18 12 20 18 22 19 4 2 345 349 353 333 343 351
245 238 243 247 261 264 234 214 196 165 157 155 156 152 151 156 157 154 154 154 153 151 146 144 144 146 145 153 159 151 141 140 117 73 71 46 22 18 14 19 19 14 10 355 357 15 360 23 28
224 236 243 252 257 263 257 240 162 162 161 159 152 147 148 148 146 144 144 144 144 143 143 140 139 139 139 141 137 125 125 123 114 90 72 61 39 20 16 15 20 19 14 6 19 39 24 35 34
229 228 232 238 252 263 268 232 130 157 169 153 140 138 139 133 135 139 139 138 142 144 144 143 144 145 145 139 129 123 120 119 113 100 82 70 61 44 33 25 26 30 31 28 37 42 39 39 39
Height
1479 1479 1479 1481 1480 1482 1487 1484 1482 1484 1486 1489 1490 1492 1498 1500 1507 1522 1526 1526 1527 1527 1527 1528 1528 1529 1529 1529 1530 1530 1530 1530 1530 1530 1531 1531 1532 1532 1533 1534 1534 1534 1534 1535 1537 1538 1539 1541 1542
1479 1480 1483 1481 1483 1494 1494 1486 1487 1488 1490 1492 1495 1499 1503 1509 1514 1521 1525 1528 1529 1529 1529 1530 1530 1531 1531 1532 1532 1533 1533 1533 1534 1534 1534 1535 1535 1536 1536 1537 1537 1538 1538 1539 1540 1541 1542 1543 1545
1480 1481 1482 1477 1484 1492 1494 1487 1488 1490 1492 1495 1500 1504 1509 1515 1520 1523 1528 1530 1531 1531 1531 1532 1532 1533 1534 1534 1535 1536 1536 1536 1537 1537 1538 1538 1538 1539 1539 1540 1540 1541 1542 1542 1543 1544 1545 1546 1547
1481 1481 1478 1478 1486 1483 1484 1486 1487 1491 1493 1497 1501 1510 1516 1520 1523 1527 1529 1531 1532 1533 1533 1534 1535 1535 1536 1537 1537 1538 1539 1539 1540 1540 1541 1541 1541 1542 1542 1543 1543 1544 1544 1545 1546 1546 1548 1549 1550
1482 1479 1477 1482 1485 1482 1483 1486 1489 1492 1495 1501 1507 1515 1521 1525 1527 1529 1531 1533 1534 1535 1535 1536 1537 1538 1538 1539 1540 1540 1541 1542 1542 1543 1543 1544 1544 1545 1545 1545 1546 1546 1547 1548 1548 1549 1550 1551 1552
1480 1474 1483 1490 1487 1483 1484 1487 1491 1495 1499 1504 1510 1517 1524 1528 1529 1531 1533 1535 1536 1537 1537 1538 1539 1540 1540 1541 1542 1542 1543 1544 1544 1545 1546 1546 1547 1547 1548 1548 1548 1549 1549 1550 1550 1551 1552 1553 1554
1479 1475 1481 1484 1488 1488 1487 1489 1493 1497 1500 1504 1510 1517 1525 1529 1531 1533 1535 1537 1538 1539 1539 1540 1541 1542 1542 1543 1544 1544 1545 1546 1547 1547 1548 1549 1549 1550 1550 1550 1551 1551 1551 1552 1552 1553 1554 1555 1556
1476 1474 1478 1482 1488 1491 1489 1492 1495 1499 1504 1507 1509 1516 1524 1530 1532 1535 1537 1539 1540 1541 1542 1542 1543 1544 1544 1545 1546 1547 1547 1548 1548 1549 1550 1550 1551 1551 1552 1552 1553 1553 1553 1554 1554 1555 1556 1557 1558
1475 1479 1485 1484 1487 1489 1490 1494 1499 1502 1505 1508 1510 1516 1524 1529 1533 1535 1538 1540 1542 1543 1544 1545 1546 1546 1547 1547 1548 1548 1549 1549 1550 1551 1552 1552 1552 1553 1553 1554 1554 1555 1555 1555 1556 1556 1557 1558 1559
1476 1485 1484 1480 1482 1486 1490 1494 1498 1502 1507 1512 1517 1522 1526 1530 1533 1536 1538 1541 1543 1544 1546 1547 1548 1549 1550 1550 1550 1550 1551 1551 1552 1552 1553 1554 1554 1555 1555 1555 1556 1556 1556 1557 1557 1558 1559 1560 1561
1478 1483 1480 1481 1484 1487 1490 1493 1496 1500 1506 1513 1519 1523 1527 1531 1534 1536 1539 1541 1543 1545 1547 1548 1549 1550 1551 1551 1552 1552 1553 1553 1553 1553 1554 1555 1556 1556 1557 1556 1556 1557 1557 1557 1558 1559 1559 1560 1561
1480 1481 1482 1483 1486 1487 1490 1493 1496 1500 1507 1513 1519 1524 1528 1531 1534 1537 1539 1542 1544 1546 1547 1549 1549 1550 1550 1552 1553 1553 1554 1554 1554 1554 1555 1556 1556 1557 1557 1557 1557 1557 1558 1558 1559 1559 1560 1561 1562
1481 1482 1483 1486 1488 1489 1492 1495 1499 1505 1510 1515 1520 1525 1528 1531 1534 1537 1540 1542 1544 1546 1548 1548 1549 1549 1550 1551 1552 1554 1554 1555 1555 1555 1555 1556 1557 1557 1557 1558 1558 1558 1558 1558 1559 1559 1560 1561 1562
1481 1482 1484 1486 1489 1492 1495 1498 1502 1508 1512 1517 1522 1525 1528 1531 1534 1537 1540 1542 1544 1546 1548 1548 1549 1549 1550 1551 1552 1553 1554 1555 1555 1555 1556 1556 1556 1556 1557 1557 1557 1558 1558 1558 1558 1559 1559 1559 1560
1483 1484 1486 1487 1488 1492 1496 1503 1503 1508 1513 1517 1521 1525 1528 1531 1534 1537 1540 1542 1544 1546 1547 1548 1549 1549 1550 1552 1552 1554 1554 1555 1555 1555 1555 1556 1556 1556 1556 1556 1557 1557 1557 1558 1558 1558 1558 1559 1560
1483 1490 1497 1489 1488 1490 1498 1510 1503 1508 1512 1516 1520 1524 1528 1531 1534 1537 1540 1542 1544 1545 1547 1548 1550 1549 1550 1551 1552 1553 1554 1554 1554 1555 1555 1555 1555 1555 1555 1555 1555 1556 1556 1557 1557 1557 1558 1558 1558
1488 1499 1501 1492 1486 1488 1495 1505 1502 1505 1510 1515 1519 1523 1527 1531 1533 1536 1539 1541 1543 1544 1546 1547 1549 1549 1549 1550 1551 1552 1553 1553 1554 1554 1554 1554 1554 1554 1554 1554 1554 1554 1555 1555 1555 1555 1556 1556 1556
1498 1495 1496 1495 1486 1487 1494 1499 1499 1502 1506 1511 1516 1521 1525 1529 1532 1535 1538 1540 1542 1543 1544 1546 1547 1548 1549 1549 1550 1551 1552 1552 1552 1553 1553 1553 1553 1553 1553 1553 1553 1553 1553 1553 1553 1553 1553 1554 1554
1487 1490 1493 1488 1483 1486 1492 1497 1496 1499 1502 1507 1512 1517 1522 1526 1531 1534 1537 1539 1541 1542 1543 1544 1545 1546 1547 1548 1549 1549 1550 1551 1551 1552 1552 1552 1552 1552 1551 1551 1551 1551 1551 1551 1551 1550 1551 1551 1552
1488 1491 1490 1486 1480 1485 1491 1495 1495 1498 1501 1503 1508 1513 1518 1523 1528 1531 1534 1537 1539 1540 1541 1542 1543 1545 1546 1547 1547 1549 1549 1550 1550 1550 1550 1550 1550 1550 1550 1549 1549 1549 1549 1548 1548 1548 1548 1548 1550
1488 1489 1490 1490 1483 1482 1489 1499 1497 1498 1499 1502 1504 1509 1514 1519 1524 1528 1532 1535 1537 1538 1539 1541 1542 1543 1545 1546 1547 1548 1548 1549 1549 1550 1549 1549 1549 1548 1548 1548 1547 1547 1547 1546 1546 1546 1546 1546 1546
1490 1481 1484 1487 1492 1493 1490 1512 1504 1499 1499 1500 1501 1505 1510 1515 1520 1524 1528 1532 1534 1536 1537 1539 1540 1542 1543 1545 1546 1547 1547 1548 1548 1548 1548 1548 1547 1547 1547 1546 1546 1545 1545 1545 1544 1544 1543 1543 1543
1481 1477 1482 1485 1492 1496 1491 1504 1509 1498 1502 1498 1498 1501 1506 1511 1516 1521 1525 1528 1532 1534 1536 1537 1539 1540 1542 1543 1544 1545 1546 1547 1547 1547 1547 1547 1546 1546 1545 1545 1544 1543 1543 1543 1542 1542 1541 1541 1541
1476 1481 1485 1487 1492 1508 1497 1502 1514 1499 1495 1492 1494 1498 1503 1508 1513 1518 1522 1526 1530 1532 1534 1536 1537 1539 1540 1541 1543 1544 1545 1545 1546 1546 1546 1546 1546 1545 1544 1544 1543 1542 1541 1541 1540 1539 1539 1538 1538
1479 1492 1508 1512 1513 1510 1491 1496 1501 1485 1483 1486 1490 1496 1501 1506 1511 1516 1520 1524 1527 1530 1533 1534 1536 1537 1539 1540 1541 1542 1543 1544 1544 1545 1545 1545 1545 1544 1543 1543 1542 1541 1540 1539 1538 1538 1537 1537 1536
1482 1487 1508 1522 1520 1509 1497 1500 1489 1478 1480 1485 1489 1494 1499 1504 1509 1514 1518 1522 1525 1528 1531 1533 1535 1536 1538 1539 1540 1541 1542 1543 1543 1543 1544 1544 1544 1543 1543 1542 1541 1540 1539 1538 1537 1536 1535 1535 1535
1481 1483 1479 1493 1499 1510 1503 1494 1484 1477 1480 1484 1488 1493 1497 1502 1507 1512 1517 1520 1524 1527 1530 1532 1534 1535 1537 1538 1540 1540 1541 1542 1542 1542 1543 1543 1542 1542 1542 1541 1540 1539 1538 1537 1536 1535 1534 1534 1533
1473 1475 1482 1492 1508 1515 1505 1497 1492 1483 1482 1483 1487 1492 1497 1501 1506 1511 1515 1519 1523 1526 1529 1531 1533 1535 1536 1538 1539 1540 1540 1541 1541 1541 1541 1541 1541 1541 1541 1540 1539 1538 1537 1536 1535 1534 1533 1533 1533
1478 1479 1480 1484 1488 1507 1514 1504 1476 1481 1479 1481 1486 1492 1496 1501 1505 1509 1514 1518 1522 1525 1528 1531 1532 1534 1536 1537 1538 1539 1540 1541 1541 1541 1541 1541 1540 1540 1539 1539 1538 1537 1536 1535 1534 1533 1533 1532 1532
1469 1474 1478 1494 1496 1491 1498 1500 1472 1476 1479 1482 1486 1493 1497 1501 1506 1509 1513 1517 1521 1524 1527 1530 1532 1533 1535 1536 1537 1539 1540 1540 1540 1540 1540 1540 1540 1539 1539 1538 1537 1536 1535 1535 1534 1533 1533 1532 1532